Regional Weather Roundup
Issued by NWS

Home | Current Version | Previous Version | Graphics & Text | Print | Product List | Glossary On
Versions: 1 2 3 4 5 6 7 8 9 10 11 12 13 14 15 16 17 18 19 20 21 22 23 24 25 26 27 28 29 30 31 32 33 34 35 36 37 38 39 40 41 42 43 44 45 46 47 48 49 50
000
ASUS43 KMPX 281301
RWRMN
WEATHER ROUNDUP FOR MINNESOTA
NATIONAL WEATHER SERVICE TWIN CITIES/CHANHASSEN MN
700 AM CST SUN DEC 28 2014


NOTE: "FAIR" INDICATES FEW OR NO CLOUDS BELOW 12,000 FEET WITH NO
SIGNIFICANT WEATHER AND/OR OBSTRUCTIONS TO VISIBILITY. N/A MEANS
CURRENT SKY AND/OR WEATHER CONDITIONS ARE NOT AVAILABLE.

MNZ060>063-068>070-281400-
   Twin Cities Metro

CITY           SKY/WX    TMP DP  RH WIND       PRES   REMARKS
TWIN CITIES    CLEAR      9   6  88 SW5       30.11R WCI   1
ST PAUL        CLEAR     10   6  84 CALM      30.13R
CRYSTAL        PTCLDY     7   3  84 CALM      30.10R
BLAINE         CLEAR     10   9  92 CALM      30.09R
LAKEVILLE      CLEAR      7   5  92 W5        30.10R WCI  -2
EDEN PRAIRIE   CLEAR      7   3  84 SW5       30.10R WCI  -2
SOUTH ST PAUL  CLEAR      9   7  89 CALM      30.11R
LAKE ELMO      FAIR       5   3  92 CALM      30.11R FOG
$$
MNZ001>005-007-008-013>017-022>024-027-028-281400-
   Northwest Minnesota

CITY           SKY/WX    TMP DP  RH WIND       PRES   REMARKS
BEMIDJI        CLEAR     -4  -8  85 NW3       30.14R
HALLOCK        CLEAR    -11 -17  77 N8        30.26R WCI -28
ROSEAU         CLEAR     -8 -13  77 NW6       30.21R WCI -21
WARROAD        CLEAR     -9 -15  77 NW7       30.19R WCI -24
THIEF RVR FALL CLEAR     -8  -9  92 NW7       30.20R WCI -22
CROOKSTON      CLEAR     -8 -13  77 N12       30.25R WCI -27
FOSSTON        MOCLDY    -6  -8  92 CALM      30.17R
DETROIT LAKES  FLURRIES   5   1  85 N10       30.14R WCI -10
MOORHEAD       CLOUDY     3  -2  78 N18       30.21R WCI -17
PARK RAPIDS    FAIR       9   3  77 N12       30.09R WCI  -6
MAHNOMEN       FAIR      -1  -5  83 NE8       30.16R WCI -16
$$
MNZ006-009>011-018-025>026-281400-
   North Central Minnesota

CITY           SKY/WX    TMP DP  RH WIND       PRES   REMARKS
BAUDETTE       CLEAR     -6 -11  79 NW9       30.16R WCI -23
FLAG ISLAND    CLEAR    -11 -17  77 NW14      30.17R WCI -33
INTL FALLS     CLEAR     -5 -10  79 W5        30.13R WCI -16
WASKISH        MOCLDY    -2  -6  84 CALM      30.16R
BIG FORK       CLOUDY    -2  -8  78 NW5       30.13R WCI -12
LONGVILLE      FLURRIES  10   7  85 N6        30.10R WCI   1
GRAND RAPIDS   CLOUDY     7   1  78 N12       30.08R WCI  -9
CRANE LAKE     CLOUDY    -2  -6  84 NW5       30.13R WCI -12
ORR            CLOUDY    -4  -9  77 NW7       30.08R WCI -18
COOK           MOCLDY    -2  -6  84 NW6       30.10R WCI -14
WALKER         CLOUDY     7   2  80 N6        30.10R WCI  -3
$$
MNZ012-019>021-037-281400-
   Northeast Minnesota

CITY           SKY/WX    TMP DP  RH WIND       PRES   REMARKS
DULUTH         FLURRIES  13   7  77 NW7       30.03R WCI   3
ELY            PTCLDY     1  -2  85 NW8       30.05R WCI -12
HIBBING        MOCLDY     4  -3  73 NW14      30.07R WCI -14
EVELETH        PTCLDY     5   0  78 NW6       30.07R WCI  -6
DULUTH HARBOR  CLEAR     19  12  73 CALM      30.10R
TWO HARBORS    CLEAR     16   9  73 NW5       30.03R WCI   9
SILVER BAY     CLEAR     12   3  67 NW5       30.03R WCI   4
GRAND MARAIS     N/A     10   1  67 VRB3      30.05R
G MARAIS ARPRT FAIR       1  -6  71 NW12G17   29.94R WCI -15
$$
MNZ029>031-032-039>041-046>048-054>057-064-281400-
   West Central Minnesota

CITY           SKY/WX    TMP DP  RH WIND       PRES   REMARKS
FERGUS FALLS   CLOUDY    16   9  73 N8        30.16R WCI   5
WHEATON        CLOUDY    14  10  85 NW10      30.16R WCI   1
MORRIS         MOCLDY    18  16  93 N14       30.09R FOG     WCI   4
ALEXANDRIA     CLOUDY    18  16  92 NW6       30.08R WCI  10
ELBOW LAKE     CLOUDY    18  16  93 N8        30.10R WCI   8
WADENA         CLOUDY    16  10  79 N10       30.08R WCI   3
GLENWOOD       CLEAR     10   9  92 W3        30.08R
APPLETON       CLOUDY    14  10  85 CALM      30.11R
BENSON         CLOUDY    10   9  92 CALM      30.10R
ORTONVILLE     MOCLDY    18  14  86 N9        30.10R WCI   6
MADISON        CLOUDY    18  16  93 NW6       30.11R WCI   9
WILLMAR        FAIR      12   9  85 CALM      30.10R
$$
MNZ033>034-036-042>043-049>051-058-059-281400-
   Central Minnesota

CITY           SKY/WX    TMP DP  RH WIND       PRES   REMARKS
ST CLOUD       MOCLDY    18  12  77 CALM      30.08R
SAUK CENTRE    CLOUDY    14  12  92 W3        30.08R
PAYNESVILLE    CLOUDY    15  15  97 CALM      30.09R
AITKIN         MOCLDY    18   9  68 NW6       30.07R WCI   9
PINE RIVER     MOCLDY    12   9  85 N3        30.12R
BRAINERD       MOCLDY    17  11  77 N8        30.09R WCI   7
STAPLES        CLOUDY    16  10  79 N10       30.08R WCI   3
LONG PRAIRIE   CLOUDY    19  18  93 W3        30.07R
LITTLE FALLS   MOCLDY    19  18  93 CALM      30.08R
LITCHFIELD     CLOUDY    16  12  86 NW5       30.09S WCI   9
BUFFALO        PTCLDY     5   2  88 CALM      30.12R
MAPLE LAKE     CLOUDY    10   8  92 CALM      30.10R
$$
MNZ037-044-045-052-053-281400-
   East Central Minnesota

CITY           SKY/WX    TMP DP  RH WIND       PRES   REMARKS
PRINCETON      CLOUDY    16  12  86 CALM      30.08R
MORA           CLOUDY    18  14  86 W3        30.09R
CAMBRIDGE      CLOUDY    18  10  73 CALM      30.07R
RUSH CITY      CLOUDY    15  12  89 CALM      30.08S
MOOSE LAKE     CLOUDY    19  14  79 N9        30.05R WCI   9
HINCKLEY       FLURRIES  19  16  86 CALM      30.08R
CLOQUET        MOCLDY    16   9  73 NW6       30.05R WCI   7
MCGREGOR       MOCLDY    16  10  79 NW7       30.08R WCI   6
$$
MNZ071>073-080-081-089-090-097-098-281400-
   Southwest Minnesota

CITY           SKY/WX    TMP DP  RH WIND       PRES   REMARKS
MONTEVIDEO     CLOUDY    12  10  92 NW6       30.11R WCI   3
GRANITE FALLS  PTCLDY    10   7  91 W6        30.12R WCI   0
CANBY          PTCLDY    13  11  92 W6        30.11R WCI   4
MARSHALL       FAIR      10   5  79 W7        30.09R WCI   0
REDWOOD FALLS  CLEAR     11   8  88 W6        30.10R WCI   1
OLIVIA         MOCLDY     9   7  92 CALM      30.09S
PIPESTONE      PTCLDY    -2  -6  84 CALM      30.06R FOG
WINDOM           N/A      5   1  85 CALM      30.08S
WORTHINGTON    CLEAR      7 N/A N/A W6        30.07S WCI  -3
JACKSON        CLEAR     10   7  85 W7        30.08R WCI   0
TRACY          CLEAR     12  10  89 W5        30.09R WCI   4
SLAYTON        PTCLDY     6   4  90 W9        30.07S WCI  -8
$$
MNZ065>067-074>077-082>085-091>093-281400-
   South Central Minnesota

CITY           SKY/WX    TMP DP  RH WIND       PRES   REMARKS
MANKATO        CLEAR      9   1  72 CALM      30.10R
NEW ULM        FAIR       7   3  85 W5        30.10R WCI  -2
ST JAMES       CLEAR     10   7  85 CALM      30.11R
FAIRMONT       CLEAR     10   5  79 W9        30.08S WCI  -2
GLENCOE        CLEAR      3   1  90 W3        30.10R
FARIBAULT      PTCLDY     7   3  85 CALM      30.11R
OWATONNA       PTCLDY     9   3  78 S3        30.09R
ALBERT LEA     PTCLDY    10   9  92 CALM      30.08F
$$
MNZ078>079-086>088-094>096-281400-
   Southeast Minnesota

CITY           SKY/WX    TMP DP  RH WIND       PRES   REMARKS
ROCHESTER      PTCLDY     6   3  87 SW9       30.07F WCI  -8
RED WING       CLEAR      3   0  85 CALM      30.11S
STANTON        PTCLDY     4   1  84 S3        30.10R
DODGE CENTER   PTCLDY     9   7  92 SW8       30.07S WCI  -4
WINONA         CLEAR     10   9  92 CALM      30.14S
AUSTIN         PTCLDY     5   3  92 CALM      30.09S
PRESTON        CLEAR      7   4  90 SW7       30.09S WCI  -5
$$
ABBREVIATIONS USED IN REMARKS
   TC - TEMPERATURES IN CELSIUS
  WCI - WIND CHILL INDEX
   HX - HEAT INDEX
  VSB - VISIBILITY
$$


USA.gov is the U.S. government's official web portal to all federal, state and local government web resources and services.